| time (UTC) | temp F | wind direction | speed MPH | gust MPH | rain 1hr in | rain 24hr in | rain mn in | humidity % | barometer mb |
| 20260905043102 | 79 | 188 | 0.0 | 2.0 | 0.00 | 0.00 | 0.00 | 69 | 1019.3 |
| 20260905041559 | 79 | 0 | 0.0 | 2.0 | 0.00 | 0.00 | 0.00 | 69 | 1019.2 |
| 20260905040107 | 80 | 188 | 1.0 | 4.0 | 0.00 | 0.00 | 0.00 | 70 | 1019.2 |
| 20260905034611 | 79 | 188 | 1.0 | 3.0 | 0.00 | 0.00 | 0.00 | 69 | 1018.8 |
| 20260905033115 | 80 | 0 | 1.0 | 1.0 | 0.00 | 0.00 | 0.00 | 70 | 1018.4 |
| 20260905031602 | 80 | 188 | 0.0 | 2.0 | 0.00 | 0.00 | 0.00 | 70 | 1018.2 |
| 20260905030104 | 80 | 188 | 1.0 | 2.0 | 0.00 | 0.00 | 0.00 | 70 | 1018.0 |
| 20260905024557 | 80 | 188 | 2.0 | 2.0 | 0.00 | 0.00 | 0.00 | 70 | 1017.8 |
| 20260905023111 | 79 | 0 | 0.0 | 1.0 | 0.00 | 0.00 | 0.00 | 70 | 1017.8 |
| 20260905021556 | 80 | 188 | 0.0 | 1.0 | 0.00 | 0.00 | 0.00 | 70 | 1017.8 |
| 20260905020055 | 80 | 188 | 0.0 | 1.0 | 0.00 | 0.00 | 0.00 | 70 | 1018.0 |
| 20260905014559 | 81 | 0 | 0.0 | 1.0 | 0.00 | 0.00 | 0.00 | 70 | 1018.1 |
| 20260905013056 | 81 | 0 | 0.0 | 0.0 | 0.00 | 0.00 | 0.00 | 70 | 1017.9 |
| 20260905011600 | 83 | 0 | 0.0 | 1.0 | 0.00 | 0.00 | 0.00 | 70 | 1018.2 |
| 20260905010107 | 85 | 188 | 0.0 | 4.0 | 0.00 | 0.00 | 0.00 | 71 | 1018.2 |
| 20260905004625 | 85 | 188 | 2.0 | 4.0 | 0.00 | 0.00 | 0.00 | 71 | 1018.1 |
| 20260905003104 | 84 | 188 | 2.0 | 4.0 | 0.00 | 0.00 | 0.00 | 71 | 1018.1 |
| 20260905001558 | 81 | 188 | 1.0 | 2.0 | 0.00 | 0.00 | 0.00 | 70 | 1018.4 |
| 20260905000135 | 80 | 188 | 1.0 | 1.0 | 0.00 | 0.00 | 0.00 | 70 | 1018.5 |
| 20260904234600 | 80 | 0 | 0.0 | 1.0 | 0.00 | 0.00 | 0.00 | 70 | 1018.5 |
| 20260904233058 | 80 | 188 | 0.0 | 3.0 | 0.00 | 0.00 | 0.00 | 70 | 1018.8 |
| 20260904231557 | 80 | 0 | 0.0 | 0.0 | 0.00 | 0.00 | 0.00 | 70 | 1018.9 |
| 20260904230114 | 81 | 0 | 0.0 | 1.0 | 0.00 | 0.00 | 0.00 | 71 | 1018.8 |
| 20260904224559 | 81 | 188 | 1.0 | 2.0 | 0.00 | 0.00 | 0.00 | 71 | 1019.0 |
| 20260904223100 | 81 | 0 | 0.0 | 3.0 | 0.00 | 0.00 | 0.00 | 71 | 1018.9 |
| 20260904221557 | 82 | 188 | 1.0 | 2.0 | 0.00 | 0.00 | 0.00 | 71 | 1019.2 |
| 20260904220100 | 83 | 188 | 2.0 | 3.0 | 0.00 | 0.00 | 0.00 | 71 | 1019.3 |
| 20260904214607 | 84 | 188 | 2.0 | 11.0 | 0.00 | 0.00 | 0.00 | 71 | 1019.4 |
| 20260904213059 | 86 | 191 | 4.0 | 6.0 | 0.00 | 0.00 | 0.00 | 72 | 1018.9 |
| 20260904211603 | 85 | 191 | 4.0 | 5.0 | 0.00 | 0.00 | 0.00 | 71 | 1018.9 |
| 20260904210055 | 85 | 191 | 2.0 | 8.0 | 0.00 | 0.00 | 0.00 | 72 | 1018.9 |
| 20260904204602 | 84 | 191 | 1.0 | 4.0 | 0.00 | 0.00 | 0.00 | 72 | 1019.3 |
| 20260904203100 | 85 | 0 | 0.0 | 4.0 | 0.00 | 0.00 | 0.00 | 72 | 1019.9 |
| 20260904201621 | 85 | 191 | 2.0 | 4.0 | 0.00 | 0.00 | 0.00 | 72 | 1019.9 |
| 20260904200100 | 85 | 0 | 0.0 | 2.0 | 0.00 | 0.00 | 0.00 | 72 | 1019.4 |
| 20260904194555 | 86 | 0 | 0.0 | 4.0 | 0.00 | 0.00 | 0.00 | 72 | 1019.3 |
| 20260904193100 | 85 | 191 | 1.0 | 2.0 | 0.00 | 0.00 | 0.00 | 72 | 1019.1 |
| 20260904191555 | 85 | 191 | 1.0 | 1.0 | 0.00 | 0.00 | 0.00 | 72 | 1019.1 |
| 20260904190056 | 84 | 191 | 0.0 | 2.0 | 0.00 | 0.00 | 0.00 | 72 | 1018.9 |
| 20260904184556 | 84 | 191 | 1.0 | 2.0 | 0.00 | 0.00 | 0.00 | 72 | 1018.8 |
| 20260904183113 | 85 | 0 | 0.0 | 2.0 | 0.00 | 0.00 | 0.00 | 72 | 1018.6 |
| 20260904181554 | 88 | 0 | 0.0 | 1.0 | 0.00 | 0.00 | 0.00 | 72 | 1018.9 |
| 20260904174557 | 89 | 191 | 2.0 | 7.0 | 0.00 | 0.00 | 0.00 | 73 | 1018.5 |
| 20260904173056 | 88 | 192 | 4.0 | 7.0 | 0.00 | 0.00 | 0.00 | 73 | 1018.0 |
| 20260904171611 | 89 | 192 | 2.0 | 4.0 | 0.00 | 0.00 | 0.00 | 73 | 1019.4 |
| 20260904170100 | 89 | 192 | 3.0 | 4.0 | 0.00 | 0.00 | 0.00 | 73 | 1019.7 |
| 20260904164610 | 89 | 192 | 1.0 | 2.0 | 0.00 | 0.00 | 0.00 | 73 | 1019.8 |
| 20260904163053 | 88 | 192 | 3.0 | 8.0 | 0.00 | 0.00 | 0.00 | 72 | 1019.7 |
| 20260904161552 | 86 | 192 | 2.0 | 3.0 | 0.00 | 0.00 | 0.00 | 72 | 1019.8 |
| 20260904154558 | 83 | 192 | 3.0 | 6.0 | 0.00 | 0.00 | 0.00 | 72 | 1020.7 |
| 20260904153109 | 82 | 192 | 4.0 | 13.0 | 0.00 | 0.00 | 0.00 | 71 | 1020.8 |
| 20260904151553 | 83 | 192 | 6.0 | 10.0 | 0.00 | 0.00 | 0.00 | 71 | 1021.0 |
| 20260904150100 | 84 | 193 | 4.0 | 8.0 | 0.00 | 0.00 | 0.00 | 72 | 1021.1 |
| 20260904144559 | 82 | 193 | 0.0 | 15.0 | 0.00 | 0.00 | 0.00 | 71 | 1020.9 |
| 20260904143055 | 86 | 158 | 8.0 | 14.0 | 0.00 | 0.00 | 0.00 | 72 | 1021.0 |
| 20260904141555 | 85 | 118 | 5.0 | 9.0 | 0.00 | 0.00 | 0.00 | 71 | 1019.7 |
| 20260904140104 | 84 | 118 | 5.0 | 11.0 | 0.00 | 0.00 | 0.00 | 71 | 1020.3 |
| 20260904134601 | 83 | 122 | 9.0 | 12.0 | 0.00 | 0.00 | 0.00 | 71 | 1020.4 |
| 20260904133059 | 83 | 122 | 0.0 | 4.0 | 0.00 | 0.00 | 0.00 | 71 | 1021.8 |
| 20260904131607 | 83 | 122 | 1.0 | 3.0 | 0.00 | 0.00 | 0.00 | 71 | 1022.2 |
| 20260904130050 | 82 | 122 | 0.0 | 4.0 | 0.00 | 0.00 | 0.00 | 71 | 1022.4 |
| 20260904124557 | 82 | 122 | 2.0 | 6.0 | 0.00 | 0.00 | 0.00 | 70 | 1022.8 |
| 20260904123058 | 82 | 122 | 0.0 | 3.0 | 0.00 | 0.00 | 0.00 | 70 | 1022.8 |
| 20260904121556 | 81 | 0 | 0.0 | 4.0 | 0.00 | 0.00 | 0.00 | 70 | 1022.6 |
| 20260904114605 | 79 | 128 | 1.0 | 5.0 | 0.00 | 0.00 | 0.00 | 70 | 1023.2 |
| 20260904113057 | 78 | 0 | 2.0 | 8.0 | 0.00 | 0.00 | 0.00 | 69 | 1023.1 |
| 20260904111606 | 78 | 127 | 4.0 | 9.0 | 0.00 | 0.00 | 0.00 | 69 | 1023.4 |
| 20260904104601 | 78 | 128 | 3.0 | 8.0 | 0.00 | 0.00 | 0.00 | 69 | 1023.1 |
| 20260904103058 | 77 | 128 | 3.0 | 9.0 | 0.00 | 0.00 | 0.00 | 69 | 1023.2 |
| 20260904101558 | 77 | 128 | 2.0 | 9.0 | 0.00 | 0.00 | 0.00 | 69 | 1023.2 |
| 20260904100105 | 76 | 128 | 2.0 | 8.0 | 0.00 | 0.00 | 0.00 | 69 | 1022.9 |
| 20260904094609 | 76 | 0 | 2.0 | 8.0 | 0.00 | 0.00 | 0.00 | 68 | 1023.2 |
| 20260904093108 | 76 | 129 | 4.0 | 9.0 | 0.00 | 0.00 | 0.00 | 68 | 1023.4 |
| 20260904091606 | 75 | 133 | 0.0 | 9.0 | 0.00 | 0.00 | 0.00 | 68 | 1023.3 |
| 20260904090101 | 75 | 134 | 3.0 | 5.0 | 0.00 | 0.00 | 0.00 | 68 | 1023.1 |
| 20260904084559 | 75 | 134 | 0.0 | 4.0 | 0.00 | 0.00 | 0.00 | 68 | 1023.1 |
| 20260904083052 | 75 | 0 | 1.0 | 3.0 | 0.00 | 0.00 | 0.00 | 68 | 1022.9 |
| 20260904081604 | 74 | 134 | 3.0 | 6.0 | 0.00 | 0.00 | 0.00 | 68 | 1022.1 |
| 20260904080056 | 74 | 134 | 1.0 | 5.0 | 0.00 | 0.00 | 0.00 | 68 | 1022.1 |
| 20260904074600 | 74 | 135 | 1.0 | 7.0 | 0.00 | 0.00 | 0.00 | 68 | 1022.6 |
| 20260904073115 | 74 | 135 | 1.0 | 2.0 | 0.00 | 0.00 | 0.00 | 67 | 1022.8 |
| 20260904071559 | 74 | 135 | 2.0 | 5.0 | 0.00 | 0.00 | 0.00 | 67 | 1022.8 |
| 20260904070106 | 74 | 138 | 2.0 | 9.0 | 0.00 | 0.00 | 0.00 | 67 | 1022.8 |
| 20260904064605 | 75 | 0 | 2.0 | 9.0 | 0.00 | 0.00 | 0.00 | 67 | 1022.7 |
| 20260904063107 | 76 | 138 | 4.0 | 8.0 | 0.00 | 0.00 | 0.00 | 68 | 1022.5 |
| 20260904061557 | 76 | 0 | 0.0 | 2.0 | 0.00 | 0.00 | 0.00 | 67 | 1021.8 |
| 20260904060103 | 76 | 0 | 1.0 | 3.0 | 0.00 | 0.00 | 0.00 | 67 | 1021.5 |
| 20260904054633 | 76 | 0 | 1.0 | 4.0 | 0.00 | 0.00 | 0.00 | 67 | 1021.4 |
| 20260904053104 | 75 | 137 | 2.0 | 6.0 | 0.00 | 0.00 | 0.00 | 67 | 1020.9 |
| 20260904051600 | 74 | 137 | 3.0 | 7.0 | 0.00 | 0.00 | 0.00 | 67 | 1020.9 |
| 20260904050054 | 74 | 149 | 3.0 | 8.0 | 0.00 | 0.00 | 0.00 | 67 | 1020.9 |
| 20260904044559 | 73 | 159 | 2.0 | 4.0 | 0.00 | 0.00 | 0.00 | 67 | 1021.0 |